Flag for U.S.A. Weather past 2 weeks in Green Bay, Wisconsin, U.S.A.

Now
64 °F

Fog.


Feels Like: 64 °F
Forecast: 64 / 83 °F
Wind: No wind

Location: Austin Straubel International Airport

Current Time: Jul 5, 2015 at 2:12:06 AM

Latest Report: Jul 5, 2015 at 12:53 AM


Visibility: 5 mi

Pressure: 30.01 "Hg

Humidity: 90%

Dew point: 61 °F

Location of Green BayLocation

Historic Weather in Green Bay — Graph

°F

Green Bay temperature yesterday

Maximum temperature yesterday: 80 °F (at 1:53 PM)
Minimum temperature yesterday: 60 °F (at 2:53 AM)
Average temperature yesterday: 70 °F

Past Weeks' High & Low Weather Summary

 TemperatureHumidityPressure
High82 °F (Jun 21, 4:53 PM)97% (Jun 21, 3:53 AM)30.13 "Hg (Jun 21, 3:53 AM)
Low47 °F (Jul 2, 4:53 AM)29% (Jun 23, 4:53 PM)29.60 "Hg (Jun 22, 2:53 PM)
Average67 °F72%29.93 "Hg
* Reported Jun 20 12:53 AM — Jul 5 12:53 AM, Green Bay, Weather by CustomWeather, © 2015

Note: Actual official high and low records may vary slightly from our data, if they occured in-between our weather recording intervals... More about our weather records

Advertising

Green Bay weather history for previous 24 hours

 ConditionsComfort  
Time TempWeatherWind HumidityBarometerVisibility
12:53 AM
Sun, Jul 5
64 °FFog.No wind90%30.01 "Hg5 mi
11:53 PM
Sat, Jul 4
65 °FFog.No wind87%29.99 "Hg6 mi
10:53 PM66 °FClear.3 mph84%29.98 "Hg6 mi
9:53 PM66 °FClear.5 mph84%29.98 "Hg7 mi
8:53 PM69 °FSunny.6 mph79%29.96 "Hg9 mi
7:53 PM74 °FSunny.6 mph69%29.95 "Hg9 mi
6:53 PM76 °FPassing clouds.9 mph67%29.95 "Hg8 mi
5:53 PM79 °FPassing clouds.10 mph62%29.96 "Hg8 mi
4:53 PM80 °FSunny.8 mph62%29.96 "Hg8 mi
3:53 PM80 °FSunny.7 mph60%29.96 "Hg6 mi
2:53 PM80 °FHaze.No wind58%29.96 "Hg6 mi
1:53 PM80 °FHaze.3 mph58%29.96 "Hg6 mi
12:53 PM79 °FScattered clouds.3 mph58%29.97 "Hg7 mi
11:53 AM77 °FSunny.No wind60%29.97 "Hg7 mi
10:53 AM76 °FSunny.No wind62%29.97 "Hg8 mi
9:53 AM74 °FSunny.3 mph67%29.96 "Hg8 mi
8:53 AM72 °FSunny.5 mph71%29.96 "Hg8 mi
7:53 AM67 °FSunny.No wind81%29.95 "Hg8 mi
6:53 AM63 °FSunny.No wind87%29.95 "Hg7 mi
5:53 AM60 °FFog.3 mph90%29.93 "Hg6 mi
4:53 AM61 °FFog.No wind90%29.91 "Hg6 mi
3:53 AM62 °FPassing clouds.5 mph90%29.90 "Hg8 mi
2:53 AM60 °FClear.3 mph90%29.90 "Hg7 mi
Weather by CustomWeather, © 2015

See weather overviewHow to use our weather pages